Regional Weather Roundup
Issued by NWS Green Bay, WI

Home | Current Version | Previous Version | Graphics & Text | Print | Product List | Glossary Off
Versions: 1 2 3 4 5 6 7 8 9 10 11 12 13 14 15 16 17 18 19 20 21 22 23 24 25 26 27 28 29 30 31 32 33 34 35 36 37 38 39 40 41 42 43 44 45 46 47 48 49 50

400
ASUS43 KGRB 250211
RWRGRB

NORTH-CENTRAL AND NORTHEAST WISCONSIN REGIONAL WEATHER ROUNDUP
NATIONAL WEATHER SERVICE GREEN BAY WI
800 PM CST SAT FEB 24 2018

WIZ005-009-010>012-018-019-250300-
NORTH CENTRAL WISCONSIN

CITY           SKY/WX    TMP DP  RH WIND       PRES   REMARKS
IRONWOOD       FLURRIES  31  22  69 E18G25    29.60F
MANITOWISH WTR CLOUDY    29  22  73 E12G22    29.59F
ARBOR VITAE    LGT SNOW  32  25  75 E17G26    29.61F
EAGLE RIVER    CLOUDY    28  20  70 E16       29.66F
LAND O LAKES   CLOUDY    29  20  70 E16G22    29.70F
RHINELANDER    LGT SNOW  28  24  85 E21G29    29.63F FOG
PHILLIPS       LGT SNOW  28  26  91 E12G25    29.57F
ANTIGO         MIX PCPN  27  24  90 E25G33    29.64F
TOMAHAWK       LGT SNOW  28  25  87 E8        29.60F
MERRILL        LGT SNOW  29  26  88 E18G25    29.60F
$$

WIZ013-073-250300-
NORTHEAST WISCONSIN

CITY           SKY/WX    TMP DP  RH WIND       PRES   REMARKS
IRON MOUNTAIN  CLOUDY    30  22  72 E7        29.75F
MARINETTE      CLOUDY    33  27  78 E15G23    29.78F
OCONTO         CLOUDY    33  28  83 E8G18     29.74F
$$

WIZ017-030-035>037-045-250300-
CENTRAL WISCONSIN

CITY           SKY/WX    TMP DP  RH WIND       PRES   REMARKS
MEDFORD        MIX PCPN  28  26  91 E18G26    29.56F
WAUSAU         MIX PCPN  29  25  85 E20G28    29.59F FOG
MOSINEE        LGT SNOW  28  28 100 E15G24    29.61F
MARSHFIELD     FRZ RAIN  31  29  92 E20G30    29.55F FOG
WISC RAPIDS    FRZ RAIN  32  28  85 SE18G28   29.61F FOG
STEVENS POINT  MIX PCPN  29  29 100 E15G21    29.62F
WAUPACA        LGT RAIN  33  30  88 NE12G18   29.67F
SHAWANO        LGT SNOW  32  28  85 E12G21    29.71F
CLINTONVILLE   MIX PCPN  31  28  85 E12G21    29.69F
WAUTOMA        MIX PCPN  32  30  93 E13G21    29.62F FOG
$$

WIZ038-039-048-051-250300-
FOX VALLEY

CITY           SKY/WX    TMP DP  RH WIND       PRES   REMARKS
NWS GREEN BAY  LGT RAIN  34  29  82 E8        29.72F
APPLETON       LGT RAIN  32  27  80 E12G20    29.68F
OSHKOSH        LGT RAIN  33  31  92 E16       29.66F FOG
FOND DU LAC    MIX PCPN  36  32  85 SE18      29.66F
$$

WIZ022-050-052-250300-
EAST CENTRAL WISCONSIN

CITY           SKY/WX    TMP DP  RH WIND       PRES   REMARKS
EPHRAIM        CLOUDY    33  28  81 E13G18    29.78F
WASHINGTON ISL CLOUDY    33  28  83 E10G16    29.81F
STURGEON BAY   CLOUDY    34  29  82 E10       29.77F
MANITOWOC      LGT RAIN  34  32  92 E18       29.74F FOG
SHEBOYGAN      LGT RAIN  34  34 100 E16G22    29.72F FOG
$$

LMZ563-521-522-541>543-250300-
LAKESHORE

STATION/POSITION TIME  TEMP    WIND        PRES    VSBY  WAVE
                       AIR SEA DIR/SP/G                  HT/PER
                 (UTC) (F)     (DEG/KT/KT) (MB)    (MI)  (FT/S)
SHEBOYGAN LKSHOR 0200   35     110/ 17/ 20 1006.9F
KEWAUNEE LKSHORE 0142   36     110/ 15/ 20 1007.8F
NORTHPORT PIER   0140   34                 1009.8F
SISTER BAY LKSHO 0120   33      90/ 10/ 17   N/A
MENOMINEE LKSHOR 0136   32      10/ 14/ 16 1009.2F
$$




USA.gov is the U.S. government's official web portal to all federal, state and local government web resources and services.